Time,TemperatureF,DewpointF,PressureIn,WindDirection,WindDirectionDegrees,WindSpeedMPH,WindSpeedGustMPH,Humidity,HourlyPrecipIn,Conditions,Clouds,dailyrainin,SoftwareType,DateUTC
2013-10-03 00:01:00,63.1,60.4,29.91,SW,225,0.0,0.0,91,0.00,CLR,,0.00,WeatherDisplay:10.37,2013-10-03 04:01:00,
2013-10-03 00:02:00,63.0,60.3,29.91,SW,225,0.0,0.0,91,0.00,CLR,,0.00,WeatherDisplay:10.37,2013-10-03 04:02:00,
2013-10-03 00:03:00,63.0,60.3,29.91,SW,225,1.1,1.1,91,0.00,CLR,,0.00,WeatherDisplay:10.37,2013-10-03 04:03:00,
2013-10-03 00:04:00,63.0,60.3,29.91,West,270,1.1,1.1,91,0.00,CLR,,0.00,WeatherDisplay:10.37,2013-10-03 04:04:00,
2013-10-03 00:09:00,63.0,60.6,29.91,WSW,248,0.0,0.0,92,0.00,CLR,,0.00,WeatherDisplay:10.37,2013-10-03 04:09:00,
2013-10-03 00:10:00,63.0,60.9,29.91,West,270,0.0,0.0,93,0.00,CLR,,0.00,WeatherDisplay:10.37,2013-10-03 04:10:00,
2013-10-03 00:15:00,63.0,60.9,29.91,West,270,0.0,0.0,93,0.00,CLR,,0.00,WeatherDisplay:10.37,2013-10-03 04:15:00,
2013-10-03 00:20:00,63.1,61.0,29.91,SW,225,0.0,0.0,93,0.00,CLR,,0.00,WeatherDisplay:10.37,2013-10-03 04:20:00,
2013-10-03 00:25:00,63.1,61.0,29.91,SW,225,0.0,0.0,93,0.00,CLR,,0.00,WeatherDisplay:10.37,2013-10-03 04:25:00,
2013-10-03 00:30:00,63.0,60.9,29.91,SW,225,0.0,0.0,93,0.00,CLR,,0.00,WeatherDisplay:10.37,2013-10-03 04:30:00,
2013-10-03 00:35:00,63.0,60.9,29.91,WSW,248,0.0,0.0,93,0.00,CLR,,0.00,WeatherDisplay:10.37,2013-10-03 04:35:00,
2013-10-03 00:40:00,62.8,60.7,29.91,SW,225,0.0,0.0,93,0.00,CLR,,0.00,WeatherDisplay:10.37,2013-10-03 04:40:00,
2013-10-03 00:45:00,62.8,61.0,29.91,SW,225,0.0,0.0,94,0.00,CLR,,0.00,WeatherDisplay:10.37,2013-10-03 04:45:00,
2013-10-03 00:50:00,62.6,60.8,29.91,SW,225,0.0,0.0,94,0.00,CLR,,0.00,WeatherDisplay:10.37,2013-10-03 04:50:00,
2013-10-03 00:55:00,62.6,60.8,29.91,SSW,202,0.0,0.0,94,0.00,CLR,,0.00,WeatherDisplay:10.37,2013-10-03 04:55:00,
2013-10-03 01:00:00,62.6,60.8,29.91,WSW,248,0.0,0.0,94,0.00,CLR,,0.00,WeatherDisplay:10.37,2013-10-03 05:00:00,
2013-10-03 01:05:00,62.2,60.5,29.91,WSW,248,0.0,0.0,94,0.00,CLR,,0.00,WeatherDisplay:10.37,2013-10-03 05:05:00,
2013-10-03 01:10:00,62.1,60.4,29.91,ESE,112,0.0,0.0,94,0.00,CLR,,0.00,WeatherDisplay:10.37,2013-10-03 05:10:00,
2013-10-03 01:15:00,62.2,60.8,29.91,ESE,112,0.0,0.0,95,0.00,CLR,,0.00,WeatherDisplay:10.37,2013-10-03 05:15:00,
2013-10-03 01:20:00,62.2,60.8,29.91,ESE,112,0.0,0.0,95,0.00,CLR,,0.00,WeatherDisplay:10.37,2013-10-03 05:20:00,
2013-10-03 01:25:00,62.2,60.8,29.92,ESE,112,0.0,0.0,95,0.00,CLR,,0.00,WeatherDisplay:10.37,2013-10-03 05:25:00,
2013-10-03 01:30:00,62.2,60.8,29.92,ESE,112,0.0,0.0,95,0.00,CLR,,0.00,WeatherDisplay:10.37,2013-10-03 05:30:00,
2013-10-03 01:35:00,62.2,60.8,29.92,South,180,0.0,0.0,95,0.00,CLR,,0.00,WeatherDisplay:10.37,2013-10-03 05:35:00,
2013-10-03 01:40:00,62.1,60.7,29.92,SSW,202,0.0,0.0,95,0.00,CLR,,0.00,WeatherDisplay:10.37,2013-10-03 05:40:00,
2013-10-03 01:45:00,62.1,60.7,29.92,SSW,202,0.0,0.0,95,0.00,CLR,,0.00,WeatherDisplay:10.37,2013-10-03 05:45:00,
2013-10-03 01:50:00,62.1,60.7,29.92,ESE,112,0.0,0.0,95,0.00,CLR,,0.00,WeatherDisplay:10.37,2013-10-03 05:50:00,
2013-10-03 01:55:00,62.2,61.0,29.92,ESE,112,0.0,0.0,96,0.00,CLR,,0.00,WeatherDisplay:10.37,2013-10-03 05:55:00,
2013-10-03 02:00:00,62.1,60.9,29.91,ESE,112,0.0,0.0,96,0.00,CLR,,0.00,WeatherDisplay:10.37,2013-10-03 06:00:00,
2013-10-03 02:05:00,62.1,60.9,29.91,ESE,112,0.0,0.0,96,0.00,CLR,,0.00,WeatherDisplay:10.37,2013-10-03 06:05:00,
2013-10-03 02:10:00,62.1,60.9,29.92,ESE,112,0.0,0.0,96,0.00,CLR,,0.00,WeatherDisplay:10.37,2013-10-03 06:10:00,
2013-10-03 02:15:00,62.1,60.9,29.92,ESE,112,1.1,1.3,96,0.00,CLR,,0.00,WeatherDisplay:10.37,2013-10-03 06:15:00,
2013-10-03 02:20:00,62.1,60.9,29.92,SE,135,0.0,0.0,96,0.00,CLR,,0.00,WeatherDisplay:10.37,2013-10-03 06:20:00,
2013-10-03 02:25:00,62.1,60.9,29.92,SSE,158,0.0,0.0,96,0.00,CLR,,0.00,WeatherDisplay:10.37,2013-10-03 06:25:00,
2013-10-03 02:30:00,62.1,60.9,29.92,ESE,112,0.0,0.0,96,0.00,CLR,,0.00,WeatherDisplay:10.37,2013-10-03 06:30:00,
2013-10-03 02:35:00,61.9,60.7,29.92,SSW,202,0.0,0.0,96,0.00,CLR,,0.00,WeatherDisplay:10.37,2013-10-03 06:35:00,
2013-10-03 02:40:00,61.5,60.3,29.92,SSW,202,0.0,0.0,96,0.00,CLR,,0.00,WeatherDisplay:10.37,2013-10-03 06:40:00,
2013-10-03 02:45:00,61.5,60.3,29.92,South,180,0.0,0.0,96,0.00,CLR,,0.00,WeatherDisplay:10.37,2013-10-03 06:45:00,
2013-10-03 02:50:00,61.5,60.3,29.91,ESE,112,0.0,0.0,96,0.00,CLR,,0.00,WeatherDisplay:10.37,2013-10-03 06:50:00,
2013-10-03 02:55:00,61.3,60.2,29.91,South,180,0.0,0.0,96,0.00,CLR,,0.00,WeatherDisplay:10.37,2013-10-03 06:55:00,
2013-10-03 03:00:00,61.2,60.1,29.91,South,180,0.0,0.0,96,0.00,CLR,,0.00,WeatherDisplay:10.37,2013-10-03 07:00:00,
2013-10-03 03:05:00,61.2,60.1,29.91,SSW,202,0.0,0.0,96,0.00,CLR,,0.00,WeatherDisplay:10.37,2013-10-03 07:05:00,
2013-10-03 03:10:00,61.2,60.1,29.91,SSW,202,0.0,0.0,96,0.00,CLR,,0.00,WeatherDisplay:10.37,2013-10-03 07:10:00,
2013-10-03 03:15:00,61.0,59.9,29.91,SSW,202,0.0,0.0,96,0.00,CLR,,0.00,WeatherDisplay:10.37,2013-10-03 07:15:00,
2013-10-03 03:20:00,61.0,59.9,29.91,SSW,202,0.0,0.0,96,0.00,CLR,,0.00,WeatherDisplay:10.37,2013-10-03 07:20:00,
2013-10-03 03:25:00,61.0,59.9,29.92,SSW,202,0.0,0.0,96,0.00,CLR,,0.00,WeatherDisplay:10.37,2013-10-03 07:25:00,
2013-10-03 03:30:00,61.0,59.9,29.92,SSW,202,0.0,0.0,96,0.00,CLR,,0.00,WeatherDisplay:10.37,2013-10-03 07:30:00,
2013-10-03 03:35:00,61.0,59.9,29.91,SSW,202,0.0,0.0,96,0.00,CLR,,0.00,WeatherDisplay:10.37,2013-10-03 07:35:00,
2013-10-03 03:40:00,61.2,60.1,29.91,SSE,158,0.0,0.0,96,0.00,CLR,,0.00,WeatherDisplay:10.37,2013-10-03 07:40:00,
2013-10-03 03:45:00,61.0,59.9,29.91,SE,135,0.0,0.0,96,0.00,CLR,,0.00,WeatherDisplay:10.37,2013-10-03 07:45:00,
2013-10-03 03:50:00,61.0,59.9,29.91,SW,225,0.0,0.0,96,0.00,CLR,,0.00,WeatherDisplay:10.37,2013-10-03 07:50:00,
2013-10-03 03:55:00,61.0,59.9,29.91,SW,225,0.0,0.0,96,0.00,CLR,,0.00,WeatherDisplay:10.37,2013-10-03 07:55:00,
2013-10-03 04:00:00,61.0,59.9,29.91,ESE,112,0.0,0.0,96,0.00,CLR,,0.00,WeatherDisplay:10.37,2013-10-03 08:00:00,
2013-10-03 04:05:00,61.2,60.1,29.91,ESE,112,1.1,0.0,96,0.00,CLR,,0.00,WeatherDisplay:10.37,2013-10-03 08:05:00,
2013-10-03 04:10:00,61.0,59.9,29.91,SW,225,0.0,0.0,96,0.00,CLR,,0.00,WeatherDisplay:10.37,2013-10-03 08:10:00,
2013-10-03 04:15:00,60.8,59.7,29.91,SW,225,2.3,2.3,96,0.00,CLR,,0.00,WeatherDisplay:10.37,2013-10-03 08:15:00,
2013-10-03 04:20:00,60.8,59.7,29.91,SSE,158,1.1,1.1,96,0.00,CLR,,0.00,WeatherDisplay:10.37,2013-10-03 08:20:00,
2013-10-03 04:25:00,60.8,59.7,29.92,SSW,202,1.1,1.1,96,0.00,CLR,,0.00,WeatherDisplay:10.37,2013-10-03 08:25:00,
2013-10-03 04:30:00,60.6,59.5,29.92,SW,225,0.0,0.0,96,0.00,CLR,,0.00,WeatherDisplay:10.37,2013-10-03 08:30:00,
2013-10-03 04:35:00,60.6,59.5,29.92,WSW,248,0.0,0.0,96,0.00,CLR,,0.00,WeatherDisplay:10.37,2013-10-03 08:35:00,
2013-10-03 04:40:00,60.6,59.5,29.92,SW,225,0.0,0.0,96,0.00,CLR,,0.00,WeatherDisplay:10.37,2013-10-03 08:40:00,
2013-10-03 04:45:00,60.6,59.5,29.92,WSW,248,0.0,0.0,96,0.00,CLR,,0.00,WeatherDisplay:10.37,2013-10-03 08:45:00,
2013-10-03 04:50:00,60.8,59.7,29.92,SSW,202,0.0,0.0,96,0.00,CLR,,0.00,WeatherDisplay:10.37,2013-10-03 08:50:00,
2013-10-03 04:55:00,60.6,59.5,29.92,WSW,248,0.0,0.0,96,0.00,CLR,,0.00,WeatherDisplay:10.37,2013-10-03 08:55:00,
2013-10-03 05:00:00,60.4,59.3,29.92,WSW,248,0.0,0.0,96,0.00,CLR,,0.00,WeatherDisplay:10.37,2013-10-03 09:00:00,
2013-10-03 05:05:00,60.3,59.2,29.92,SSW,202,0.0,0.0,96,0.00,CLR,,0.00,WeatherDisplay:10.37,2013-10-03 09:05:00,
2013-10-03 05:10:00,60.4,59.3,29.92,SW,225,0.0,0.0,96,0.00,CLR,,0.00,WeatherDisplay:10.37,2013-10-03 09:10:00,
2013-10-03 05:15:00,60.4,59.3,29.92,ESE,112,0.0,0.0,96,0.00,CLR,,0.00,WeatherDisplay:10.37,2013-10-03 09:15:00,
2013-10-03 05:20:00,60.4,59.3,29.92,WSW,248,0.0,0.0,96,0.00,CLR,,0.00,WeatherDisplay:10.37,2013-10-03 09:20:00,
2013-10-03 05:25:00,60.4,59.3,29.92,SW,225,0.0,0.0,96,0.00,CLR,,0.00,WeatherDisplay:10.37,2013-10-03 09:25:00,
2013-10-03 05:30:00,60.6,59.5,29.92,South,180,0.0,0.0,96,0.00,CLR,,0.00,WeatherDisplay:10.37,2013-10-03 09:30:00,
2013-10-03 05:35:00,60.8,59.7,29.91,SW,225,0.0,0.0,96,0.00,SCT,,0.00,WeatherDisplay:10.37,2013-10-03 09:35:00,
2013-10-03 05:40:00,60.6,59.5,29.91,South,180,1.7,0.0,96,0.00,SCT,,0.00,WeatherDisplay:10.37,2013-10-03 09:40:00,
2013-10-03 05:45:00,60.8,59.7,29.91,WSW,248,2.2,2.2,96,0.00,SCT,,0.00,WeatherDisplay:10.37,2013-10-03 09:45:00,
2013-10-03 05:50:00,60.6,59.5,29.92,ESE,112,0.0,0.0,96,0.00,SCT,,0.00,WeatherDisplay:10.37,2013-10-03 09:50:00,
2013-10-03 05:55:00,60.8,59.7,29.92,ESE,112,2.7,2.7,96,0.00,SCT,,0.00,WeatherDisplay:10.37,2013-10-03 09:55:00,
2013-10-03 06:00:00,61.0,59.9,29.91,ENE,68,0.0,0.0,96,0.00,SCT,,0.00,WeatherDisplay:10.37,2013-10-03 10:00:00,
2013-10-03 06:05:00,61.0,59.9,29.91,SSW,202,1.1,1.1,96,0.00,SCT,,0.00,WeatherDisplay:10.37,2013-10-03 10:05:00,
2013-10-03 06:10:00,60.8,59.7,29.91,WSW,248,2.3,2.3,96,0.00,SCT,,0.00,WeatherDisplay:10.37,2013-10-03 10:10:00,
2013-10-03 06:15:00,60.6,59.5,29.92,WSW,248,2.7,2.7,96,0.00,SCT,,0.00,WeatherDisplay:10.37,2013-10-03 10:15:00,
2013-10-03 06:20:00,60.6,59.5,29.92,SW,225,1.1,0.0,96,0.00,SCT,,0.00,WeatherDisplay:10.37,2013-10-03 10:20:00,
2013-10-03 06:25:00,60.8,59.7,29.91,South,180,0.0,0.0,96,0.00,SCT,,0.00,WeatherDisplay:10.37,2013-10-03 10:25:00,
2013-10-03 06:30:00,61.0,59.9,29.91,ESE,112,1.1,1.1,96,0.00,SCT,,0.00,WeatherDisplay:10.37,2013-10-03 10:30:00,
2013-10-03 06:35:00,60.8,59.7,29.92,ENE,68,0.0,0.0,96,0.00,BKN,,0.00,WeatherDisplay:10.37,2013-10-03 10:35:00,
2013-10-03 06:40:00,60.8,59.7,29.92,SSW,202,0.0,0.0,96,0.00,BKN,,0.00,WeatherDisplay:10.37,2013-10-03 10:40:00,
2013-10-03 06:45:00,60.6,59.5,29.92,SSW,202,0.0,0.0,96,0.00,BKN,,0.00,WeatherDisplay:10.37,2013-10-03 10:45:00,
2013-10-03 06:50:00,60.6,59.5,29.92,SE,135,1.1,1.1,96,0.00,BKN,,0.00,WeatherDisplay:10.37,2013-10-03 10:50:00,
2013-10-03 06:55:00,60.6,59.5,29.92,SSW,202,1.7,1.7,96,0.00,BKN,,0.00,WeatherDisplay:10.37,2013-10-03 10:55:00,
2013-10-03 07:00:00,60.4,59.3,29.92,West,270,0.0,0.0,96,0.00,BKN,,0.00,WeatherDisplay:10.37,2013-10-03 11:00:00,
2013-10-03 07:05:00,60.3,59.2,29.92,SSW,202,0.0,0.0,96,0.00,BKN,,0.00,WeatherDisplay:10.37,2013-10-03 11:05:00,
2013-10-03 07:10:00,60.3,59.2,29.92,South,180,0.0,0.0,96,0.00,BKN,,0.00,WeatherDisplay:10.37,2013-10-03 11:10:00,
2013-10-03 07:15:00,60.4,59.3,29.93,SW,225,1.7,1.7,96,0.00,BKN,,0.00,WeatherDisplay:10.37,2013-10-03 11:15:00,
2013-10-03 07:20:00,60.4,59.3,29.93,ENE,68,1.7,1.7,96,0.00,BKN,,0.00,WeatherDisplay:10.37,2013-10-03 11:20:00,
2013-10-03 07:25:00,60.8,59.7,29.92,WSW,248,2.3,2.3,96,0.00,BKN,,0.00,WeatherDisplay:10.37,2013-10-03 11:25:00,
2013-10-03 07:30:00,61.0,59.9,29.92,ESE,112,3.5,3.5,96,0.00,BKN,,0.00,WeatherDisplay:10.37,2013-10-03 11:30:00,
2013-10-03 07:35:00,61.2,60.1,29.93,East,90,1.1,1.1,96,0.00,OVC,,0.00,WeatherDisplay:10.37,2013-10-03 11:35:00,
2013-10-03 07:40:00,61.3,60.2,29.93,ESE,112,3.5,3.5,96,0.00,OVC,,0.00,WeatherDisplay:10.37,2013-10-03 11:40:00,
2013-10-03 07:45:00,61.3,60.2,29.93,West,270,2.7,2.7,96,0.00,OVC,,0.00,WeatherDisplay:10.37,2013-10-03 11:45:00,
2013-10-03 07:50:00,61.3,60.2,29.92,WSW,248,2.3,2.3,96,0.00,OVC,,0.00,WeatherDisplay:10.37,2013-10-03 11:50:00,
2013-10-03 07:55:00,61.3,60.2,29.92,SW,225,2.2,2.2,96,0.00,OVC,,0.00,WeatherDisplay:10.37,2013-10-03 11:55:00,
2013-10-03 08:00:00,61.7,60.5,29.93,WSW,248,2.3,2.3,96,0.00,OVC,,0.00,WeatherDisplay:10.37,2013-10-03 12:00:00,
2013-10-03 08:05:00,62.2,61.0,29.93,SW,225,2.3,2.3,96,0.00,BKN,,0.00,WeatherDisplay:10.37,2013-10-03 12:05:00,
2013-10-03 08:10:00,63.0,61.5,29.93,SSW,202,1.1,1.1,95,0.00,BKN,,0.00,WeatherDisplay:10.37,2013-10-03 12:10:00,
2013-10-03 08:15:00,63.1,61.3,29.93,WSW,248,1.1,0.0,94,0.00,BKN,,0.00,WeatherDisplay:10.37,2013-10-03 12:15:00,
2013-10-03 08:20:00,63.1,61.3,29.93,South,180,0.0,0.0,94,0.00,BKN,,0.00,WeatherDisplay:10.37,2013-10-03 12:20:00,
2013-10-03 08:25:00,63.5,61.1,29.93,WSW,248,2.3,2.3,92,0.00,BKN,,0.00,WeatherDisplay:10.37,2013-10-03 12:25:00,
2013-10-03 08:30:00,63.7,61.3,29.93,WSW,248,1.1,1.1,92,0.00,BKN,,0.00,WeatherDisplay:10.37,2013-10-03 12:30:00,
2013-10-03 08:36:00,63.9,61.2,29.93,ENE,68,1.1,1.1,91,0.00,OVC,,0.00,WeatherDisplay:10.37,2013-10-03 12:36:00,
2013-10-03 08:41:00,64.6,61.6,29.93,SSW,202,0.0,0.0,90,0.00,OVC,,0.00,WeatherDisplay:10.37,2013-10-03 12:41:00,
2013-10-03 08:46:00,64.8,61.2,29.93,SW,225,2.3,2.3,88,0.00,OVC,,0.00,WeatherDisplay:10.37,2013-10-03 12:46:00,
2013-10-03 08:51:00,64.9,61.6,29.93,SW,225,2.7,2.7,89,0.00,OVC,,0.00,WeatherDisplay:10.37,2013-10-03 12:51:00,
2013-10-03 08:56:00,65.1,61.5,29.93,SSW,202,1.1,1.1,88,0.00,OVC,,0.00,WeatherDisplay:10.37,2013-10-03 12:56:00,
2013-10-03 09:01:00,65.7,61.7,29.93,North,360,0.0,0.0,87,0.00,BKN,,0.00,WeatherDisplay:10.37,2013-10-03 13:01:00,
2013-10-03 09:06:00,66.0,62.0,29.93,East,90,2.3,2.3,87,0.00,BKN,,0.00,WeatherDisplay:10.37,2013-10-03 13:06:00,
2013-10-03 09:11:00,66.4,62.1,29.93,West,270,2.3,2.3,86,0.00,BKN,,0.00,WeatherDisplay:10.37,2013-10-03 13:11:00,
2013-10-03 09:16:00,67.5,63.2,29.93,SW,225,3.5,3.5,86,0.00,BKN,,0.00,WeatherDisplay:10.37,2013-10-03 13:16:00,
2013-10-03 09:21:00,67.6,63.9,29.93,West,270,2.3,2.3,88,0.00,BKN,,0.00,WeatherDisplay:10.37,2013-10-03 13:21:00,
2013-10-03 09:26:00,68.4,63.4,29.93,SSE,158,2.7,2.7,84,0.00,BKN,,0.00,WeatherDisplay:10.37,2013-10-03 13:26:00,
2013-10-03 09:31:00,68.7,63.3,29.93,SSW,202,3.5,3.5,83,0.00,BKN,,0.00,WeatherDisplay:10.37,2013-10-03 13:31:00,
2013-10-03 09:36:00,69.3,63.6,29.93,West,270,1.1,1.1,82,0.00,BKN,,0.00,WeatherDisplay:10.37,2013-10-03 13:36:00,
2013-10-03 09:41:00,68.9,63.2,29.93,SW,225,2.3,2.3,82,0.00,BKN,,0.00,WeatherDisplay:10.37,2013-10-03 13:41:00,
2013-10-03 09:46:00,69.4,63.7,29.93,SSW,202,3.5,3.5,82,0.00,BKN,,0.00,WeatherDisplay:10.37,2013-10-03 13:46:00,
2013-10-03 09:51:00,69.6,63.9,29.94,SSE,158,4.6,4.6,82,0.00,BKN,,0.00,WeatherDisplay:10.37,2013-10-03 13:51:00,
2013-10-03 09:56:00,70.2,64.4,29.94,WSW,248,3.5,3.5,82,0.00,BKN,,0.00,WeatherDisplay:10.37,2013-10-03 13:56:00,
2013-10-03 10:01:00,70.0,63.5,29.93,SSW,202,3.5,3.5,80,0.00,OVC,,0.00,WeatherDisplay:10.37,2013-10-03 14:01:00,
2013-10-03 10:06:00,70.5,63.7,29.93,SW,225,3.5,3.5,79,0.00,OVC,,0.00,WeatherDisplay:10.37,2013-10-03 14:06:00,
2013-10-03 10:11:00,70.0,63.5,29.93,SW,225,4.6,4.6,80,0.00,OVC,,0.00,WeatherDisplay:10.37,2013-10-03 14:11:00,
2013-10-03 10:16:00,70.7,64.2,29.93,SSW,202,4.6,4.6,80,0.00,OVC,,0.00,WeatherDisplay:10.37,2013-10-03 14:16:00,
2013-10-03 10:21:00,71.2,64.4,29.93,SW,225,5.8,5.8,79,0.00,OVC,,0.00,WeatherDisplay:10.37,2013-10-03 14:21:00,
2013-10-03 10:26:00,71.4,64.2,29.93,SW,225,6.3,6.3,78,0.00,OVC,,0.00,WeatherDisplay:10.37,2013-10-03 14:26:00,
2013-10-03 10:31:00,71.2,64.0,29.93,SSW,202,6.9,6.9,78,0.00,OVC,,0.00,WeatherDisplay:10.37,2013-10-03 14:31:00,
2013-10-03 10:36:00,71.6,64.4,29.93,SW,225,4.7,4.7,78,0.00,OVC,,0.00,WeatherDisplay:10.37,2013-10-03 14:36:00,
2013-10-03 10:41:00,71.8,64.6,29.93,SSE,158,4.6,4.6,78,0.00,OVC,,0.00,WeatherDisplay:10.37,2013-10-03 14:41:00,
2013-10-03 10:46:00,72.7,65.4,29.93,West,270,4.6,4.6,78,0.00,OVC,,0.00,WeatherDisplay:10.37,2013-10-03 14:46:00,
2013-10-03 10:51:00,73.4,65.7,29.93,WSW,248,3.5,3.5,77,0.00,OVC,,0.00,WeatherDisplay:10.37,2013-10-03 14:51:00,
2013-10-03 10:56:00,72.9,64.9,29.93,WSW,248,5.8,5.8,76,0.00,OVC,,0.00,WeatherDisplay:10.37,2013-10-03 14:56:00,
2013-10-03 11:01:00,73.6,65.9,29.93,WSW,248,5.8,5.8,77,0.00,OVC,,0.00,WeatherDisplay:10.37,2013-10-03 15:01:00,
2013-10-03 11:06:00,74.3,65.9,29.93,SSW,202,6.9,6.9,75,0.00,OVC,,0.00,WeatherDisplay:10.37,2013-10-03 15:06:00,
2013-10-03 11:11:00,73.6,65.9,29.93,NW,315,6.3,6.3,77,0.00,OVC,,0.00,WeatherDisplay:10.37,2013-10-03 15:11:00,
2013-10-03 11:16:00,73.9,65.5,29.93,SW,225,8.1,8.1,75,0.00,OVC,,0.00,WeatherDisplay:10.37,2013-10-03 15:16:00,
2013-10-03 11:21:00,73.6,65.6,29.93,WSW,248,5.8,5.8,76,0.00,OVC,,0.00,WeatherDisplay:10.37,2013-10-03 15:21:00,
2013-10-03 11:26:00,74.7,66.2,29.92,West,270,4.7,4.7,75,0.00,OVC,,0.00,WeatherDisplay:10.37,2013-10-03 15:26:00,
2013-10-03 11:31:00,75.4,66.1,29.92,SW,225,5.8,5.8,73,0.00,BKN,,0.00,WeatherDisplay:10.37,2013-10-03 15:31:00,
2013-10-03 11:36:00,75.6,66.3,29.92,SW,225,5.8,5.8,73,0.00,BKN,,0.00,WeatherDisplay:10.37,2013-10-03 15:36:00,
2013-10-03 11:41:00,76.1,66.8,29.92,SW,225,5.8,5.8,73,0.00,BKN,,0.00,WeatherDisplay:10.37,2013-10-03 15:41:00,
2013-10-03 11:46:00,76.3,66.6,29.92,SW,225,6.3,6.3,72,0.00,BKN,,0.00,WeatherDisplay:10.37,2013-10-03 15:46:00,
2013-10-03 11:51:00,77.2,67.1,29.92,WSW,248,3.5,3.5,71,0.00,BKN,,0.00,WeatherDisplay:10.37,2013-10-03 15:51:00,
2013-10-03 11:56:00,76.6,66.5,29.92,SW,225,5.8,5.8,71,0.00,BKN,,0.00,WeatherDisplay:10.37,2013-10-03 15:56:00,
2013-10-03 12:01:00,76.6,66.1,29.92,SW,225,6.9,6.9,70,0.00,BKN,,0.00,WeatherDisplay:10.37,2013-10-03 16:01:00,
2013-10-03 12:06:00,76.8,66.7,29.92,SW,225,6.9,6.9,71,0.00,BKN,,0.00,WeatherDisplay:10.37,2013-10-03 16:06:00,
2013-10-03 12:11:00,76.3,66.2,29.92,SSW,202,5.8,5.8,71,0.00,BKN,,0.00,WeatherDisplay:10.37,2013-10-03 16:11:00,
2013-10-03 12:16:00,77.5,66.5,29.92,WSW,248,6.9,6.9,69,0.00,BKN,,0.00,WeatherDisplay:10.37,2013-10-03 16:16:00,
2013-10-03 12:21:00,76.8,66.3,29.92,West,270,5.8,5.8,70,0.00,BKN,,0.00,WeatherDisplay:10.37,2013-10-03 16:21:00,
2013-10-03 12:26:00,77.0,66.5,29.92,SSW,202,6.3,6.3,70,0.00,BKN,,0.00,WeatherDisplay:10.37,2013-10-03 16:26:00,
2013-10-03 12:31:00,78.1,66.7,29.92,WSW,248,5.8,5.8,68,0.00,OVC,,0.00,WeatherDisplay:10.37,2013-10-03 16:31:00,
2013-10-03 12:36:00,77.2,66.7,29.91,WSW,248,3.7,3.7,70,0.00,OVC,,0.00,WeatherDisplay:10.37,2013-10-03 16:36:00,
2013-10-03 12:41:00,77.0,66.5,29.91,WSW,248,4.7,4.7,70,0.00,OVC,,0.00,WeatherDisplay:10.37,2013-10-03 16:41:00,
2013-10-03 12:46:00,76.8,66.3,29.91,SW,225,5.8,5.8,70,0.00,OVC,,0.00,WeatherDisplay:10.37,2013-10-03 16:46:00,
2013-10-03 12:51:00,77.0,66.5,29.91,WSW,248,5.8,5.8,70,0.00,OVC,,0.00,WeatherDisplay:10.37,2013-10-03 16:51:00,
2013-10-03 12:56:00,77.2,66.7,29.91,WSW,248,4.6,4.6,70,0.00,OVC,,0.00,WeatherDisplay:10.37,2013-10-03 16:56:00,
2013-10-03 13:01:00,77.4,66.8,29.91,WSW,248,5.8,5.8,70,0.00,OVC,,0.00,WeatherDisplay:10.37,2013-10-03 17:01:00,
2013-10-03 13:06:00,77.7,66.7,29.91,South,180,5.8,5.8,69,0.00,OVC,,0.00,WeatherDisplay:10.37,2013-10-03 17:06:00,
2013-10-03 13:11:00,79.3,67.4,29.91,SE,135,4.6,4.6,67,0.00,OVC,,0.00,WeatherDisplay:10.37,2013-10-03 17:11:00,
2013-10-03 13:16:00,77.5,66.5,29.91,West,270,6.3,6.3,69,0.00,OVC,,0.00,WeatherDisplay:10.37,2013-10-03 17:16:00,
2013-10-03 13:21:00,77.5,66.5,29.91,West,270,6.9,6.9,69,0.00,OVC,,0.00,WeatherDisplay:10.37,2013-10-03 17:21:00,
2013-10-03 13:26:00,78.3,67.7,29.90,South,180,4.6,4.6,70,0.00,OVC,,0.00,WeatherDisplay:10.37,2013-10-03 17:26:00,
2013-10-03 13:31:00,79.3,67.4,29.90,WSW,248,5.8,5.8,67,0.00,BKN,,0.00,WeatherDisplay:10.37,2013-10-03 17:31:00,
2013-10-03 13:36:00,77.9,66.5,29.90,WSW,248,8.1,8.1,68,0.00,BKN,,0.00,WeatherDisplay:10.37,2013-10-03 17:36:00,
2013-10-03 13:41:00,77.5,66.9,29.90,SSW,202,4.6,4.6,70,0.00,BKN,,0.00,WeatherDisplay:10.37,2013-10-03 17:41:00,
2013-10-03 13:46:00,77.7,66.7,29.90,SSW,202,5.8,5.8,69,0.00,BKN,,0.00,WeatherDisplay:10.37,2013-10-03 17:46:00,
2013-10-03 13:51:00,78.4,66.5,29.90,SSW,202,5.8,5.8,67,0.00,BKN,,0.00,WeatherDisplay:10.37,2013-10-03 17:51:00,
2013-10-03 13:56:00,78.8,66.9,29.90,WSW,248,5.8,6.1,67,0.00,BKN,,0.00,WeatherDisplay:10.37,2013-10-03 17:56:00,
2013-10-03 14:01:00,79.3,66.5,29.89,South,180,5.8,5.8,65,0.00,BKN,,0.00,WeatherDisplay:10.37,2013-10-03 18:01:00,
2013-10-03 14:06:00,78.4,66.5,29.89,WSW,248,8.1,8.1,67,0.00,BKN,,0.00,WeatherDisplay:10.37,2013-10-03 18:06:00,
2013-10-03 14:11:00,79.0,67.1,29.89,SSW,202,5.8,5.8,67,0.00,BKN,,0.00,WeatherDisplay:10.37,2013-10-03 18:11:00,
2013-10-03 14:16:00,78.8,66.9,29.89,East,90,5.8,5.8,67,0.00,BKN,,0.00,WeatherDisplay:10.37,2013-10-03 18:16:00,
2013-10-03 14:21:00,78.3,66.4,29.89,SW,225,8.1,8.1,67,0.00,BKN,,0.00,WeatherDisplay:10.37,2013-10-03 18:21:00,
2013-10-03 14:26:00,78.1,66.7,29.88,SW,225,5.8,5.8,68,0.00,BKN,,0.00,WeatherDisplay:10.37,2013-10-03 18:26:00,
2013-10-03 14:31:00,78.1,66.7,29.88,WSW,248,6.9,6.9,68,0.00,OVC,,0.00,WeatherDisplay:10.37,2013-10-03 18:31:00,
2013-10-03 14:36:00,77.9,66.5,29.89,West,270,6.9,6.9,68,0.00,OVC,,0.00,WeatherDisplay:10.37,2013-10-03 18:36:00,
2013-10-03 14:41:00,78.4,67.0,29.89,WSW,248,3.5,3.5,68,0.00,OVC,,0.00,WeatherDisplay:10.37,2013-10-03 18:41:00,
2013-10-03 14:46:00,78.3,66.9,29.89,West,270,5.8,5.8,68,0.00,OVC,,0.00,WeatherDisplay:10.37,2013-10-03 18:46:00,
2013-10-03 14:51:00,79.0,67.5,29.88,WSW,248,4.7,4.7,68,0.00,OVC,,0.00,WeatherDisplay:10.37,2013-10-03 18:51:00,
2013-10-03 14:56:00,79.0,67.5,29.88,West,270,4.6,4.6,68,0.00,OVC,,0.00,WeatherDisplay:10.37,2013-10-03 18:56:00,
2013-10-03 15:01:00,78.8,67.3,29.88,SW,225,5.8,5.8,68,0.00,OVC,,0.00,WeatherDisplay:10.37,2013-10-03 19:01:00,
2013-10-03 15:06:00,79.2,67.3,29.88,SW,225,4.6,4.6,67,0.00,OVC,,0.00,WeatherDisplay:10.37,2013-10-03 19:06:00,
2013-10-03 15:11:00,79.0,67.5,29.88,SSE,158,2.3,2.3,68,0.00,OVC,,0.00,WeatherDisplay:10.37,2013-10-03 19:11:00,
2013-10-03 15:16:00,77.7,67.1,29.88,SW,225,3.5,3.5,70,0.00,OVC,,0.00,WeatherDisplay:10.37,2013-10-03 19:16:00,
2013-10-03 15:21:00,78.1,67.1,29.88,SW,225,4.6,4.6,69,0.00,OVC,,0.00,WeatherDisplay:10.37,2013-10-03 19:21:00,
2013-10-03 15:26:00,77.7,67.1,29.87,WSW,248,4.6,4.6,70,0.00,OVC,,0.00,WeatherDisplay:10.37,2013-10-03 19:26:00,
2013-10-03 15:31:00,77.5,66.9,29.87,West,270,5.8,5.8,70,0.00,OVC,,0.00,WeatherDisplay:10.37,2013-10-03 19:31:00,
2013-10-03 15:36:00,77.9,66.9,29.87,SSW,202,6.9,6.9,69,0.00,OVC,,0.00,WeatherDisplay:10.37,2013-10-03 19:36:00,
2013-10-03 15:41:00,78.1,67.1,29.87,SW,225,4.6,4.6,69,0.00,OVC,,0.00,WeatherDisplay:10.37,2013-10-03 19:41:00,
2013-10-03 15:46:00,78.1,67.1,29.87,WSW,248,6.9,6.9,69,0.00,OVC,,0.00,WeatherDisplay:10.37,2013-10-03 19:46:00,
2013-10-03 15:51:00,78.1,67.5,29.87,WSW,248,4.2,4.2,70,0.00,OVC,,0.00,WeatherDisplay:10.37,2013-10-03 19:51:00,
2013-10-03 15:56:00,77.7,67.1,29.87,West,270,5.8,5.8,70,0.00,OVC,,0.00,WeatherDisplay:10.37,2013-10-03 19:56:00,
2013-10-03 16:01:00,77.7,67.1,29.87,SSW,202,5.8,5.8,70,0.00,FEW,,0.00,WeatherDisplay:10.37,2013-10-03 20:01:00,
2013-10-03 16:06:00,77.7,66.7,29.87,West,270,5.8,5.8,69,0.00,FEW,,0.00,WeatherDisplay:10.37,2013-10-03 20:06:00,
2013-10-03 16:11:00,78.3,67.3,29.86,SW,225,5.8,5.8,69,0.00,FEW,,0.00,WeatherDisplay:10.37,2013-10-03 20:11:00,
2013-10-03 16:16:00,78.6,67.2,29.86,West,270,5.8,5.8,68,0.00,FEW,,0.00,WeatherDisplay:10.37,2013-10-03 20:16:00,
2013-10-03 16:21:00,79.3,67.4,29.86,SW,225,8.1,8.1,67,0.00,FEW,,0.00,WeatherDisplay:10.37,2013-10-03 20:21:00,
2013-10-03 16:26:00,80.1,67.7,29.86,West,270,5.8,5.8,66,0.00,FEW,,0.00,WeatherDisplay:10.37,2013-10-03 20:26:00,
2013-10-03 16:31:00,80.1,67.3,29.86,WSW,248,5.8,5.8,65,0.00,FEW,,0.00,WeatherDisplay:10.37,2013-10-03 20:31:00,
2013-10-03 16:36:00,80.6,67.7,29.86,SSW,202,5.8,5.8,65,0.00,FEW,,0.00,WeatherDisplay:10.37,2013-10-03 20:36:00,
2013-10-03 16:41:00,82.2,67.9,29.86,SW,225,4.7,4.7,62,0.00,FEW,,0.00,WeatherDisplay:10.37,2013-10-03 20:41:00,
2013-10-03 16:46:00,81.0,68.1,29.86,SW,225,5.8,5.8,65,0.00,FEW,,0.00,WeatherDisplay:10.37,2013-10-03 20:46:00,
2013-10-03 16:51:00,81.5,67.7,29.85,SSW,202,6.3,6.3,63,0.00,FEW,,0.00,WeatherDisplay:10.37,2013-10-03 20:51:00,
2013-10-03 16:56:00,81.7,68.3,29.85,WSW,248,3.7,3.7,64,0.00,FEW,,0.00,WeatherDisplay:10.37,2013-10-03 20:56:00,
2013-10-03 17:01:00,81.1,68.2,29.86,SW,225,5.8,5.8,65,0.00,SCT,,0.00,WeatherDisplay:10.37,2013-10-03 21:01:00,
2013-10-03 17:06:00,80.8,68.4,29.86,WSW,248,5.8,5.8,66,0.00,SCT,,0.00,WeatherDisplay:10.37,2013-10-03 21:06:00,
2013-10-03 17:11:00,80.6,67.7,29.86,South,180,5.8,5.8,65,0.00,SCT,,0.00,WeatherDisplay:10.37,2013-10-03 21:11:00,
2013-10-03 17:16:00,81.1,67.8,29.85,SSW,202,3.5,3.5,64,0.00,SCT,,0.00,WeatherDisplay:10.37,2013-10-03 21:16:00,
2013-10-03 17:21:00,81.5,68.1,29.85,SW,225,3.5,3.5,64,0.00,SCT,,0.00,WeatherDisplay:10.37,2013-10-03 21:21:00,
2013-10-03 17:26:00,81.0,68.1,29.86,SW,225,4.6,4.6,65,0.00,SCT,,0.00,WeatherDisplay:10.37,2013-10-03 21:26:00,
2013-10-03 17:31:00,81.1,68.7,29.86,West,270,3.5,3.5,66,0.00,SCT,,0.00,WeatherDisplay:10.37,2013-10-03 21:31:00,
2013-10-03 17:36:00,81.9,68.5,29.85,SW,225,3.5,3.5,64,0.00,SCT,,0.00,WeatherDisplay:10.37,2013-10-03 21:36:00,
2013-10-03 17:41:00,81.7,68.8,29.85,SW,225,3.5,3.5,65,0.00,SCT,,0.00,WeatherDisplay:10.37,2013-10-03 21:41:00,
2013-10-03 17:46:00,81.7,68.3,29.85,WSW,248,5.8,5.8,64,0.00,SCT,,0.00,WeatherDisplay:10.37,2013-10-03 21:46:00,
2013-10-03 17:51:00,81.3,68.9,29.86,SW,225,3.5,3.5,66,0.00,SCT,,0.00,WeatherDisplay:10.37,2013-10-03 21:51:00,
2013-10-03 17:56:00,80.4,68.0,29.86,WSW,248,3.5,3.5,66,0.00,SCT,,0.00,WeatherDisplay:10.37,2013-10-03 21:56:00,
2013-10-03 18:01:00,80.2,68.2,29.86,SSW,202,4.6,4.6,67,0.00,BKN,,0.00,WeatherDisplay:10.37,2013-10-03 22:01:00,
2013-10-03 18:06:00,80.1,68.2,29.86,SW,225,4.6,4.6,67,0.00,BKN,,0.00,WeatherDisplay:10.37,2013-10-03 22:06:00,
2013-10-03 18:11:00,79.3,67.8,29.85,SW,225,2.3,2.3,68,0.00,BKN,,0.00,WeatherDisplay:10.37,2013-10-03 22:11:00,
2013-10-03 18:16:00,78.4,67.4,29.85,South,180,3.5,3.5,69,0.00,BKN,,0.00,WeatherDisplay:10.37,2013-10-03 22:16:00,
2013-10-03 18:21:00,77.9,67.3,29.85,SW,225,3.5,3.5,70,0.00,BKN,,0.00,WeatherDisplay:10.37,2013-10-03 22:21:00,
2013-10-03 18:26:00,77.4,67.7,29.85,West,270,3.5,3.5,72,0.00,BKN,,0.00,WeatherDisplay:10.37,2013-10-03 22:26:00,
2013-10-03 18:31:00,76.6,66.9,29.85,SW,225,2.7,2.7,72,0.00,BKN,,0.00,WeatherDisplay:10.37,2013-10-03 22:31:00,
2013-10-03 18:36:00,75.9,66.6,29.86,SW,225,4.6,4.6,73,0.00,BKN,,0.00,WeatherDisplay:10.37,2013-10-03 22:36:00,
2013-10-03 18:41:00,75.6,66.7,29.86,WSW,248,3.5,3.5,74,0.00,BKN,,0.00,WeatherDisplay:10.37,2013-10-03 22:41:00,
2013-10-03 18:46:00,75.2,66.7,29.86,SW,225,3.5,3.5,75,0.00,BKN,,0.00,WeatherDisplay:10.37,2013-10-03 22:46:00,
2013-10-03 18:51:00,74.8,66.7,29.86,WSW,248,2.7,2.7,76,0.00,BKN,,0.00,WeatherDisplay:10.37,2013-10-03 22:51:00,
2013-10-03 18:56:00,74.3,66.6,29.86,SW,225,3.5,3.5,77,0.00,BKN,,0.00,WeatherDisplay:10.37,2013-10-03 22:56:00,
2013-10-03 19:01:00,73.9,66.2,29.86,SW,225,3.5,3.5,77,0.00,CLR,,0.00,WeatherDisplay:10.37,2013-10-03 23:01:00,
2013-10-03 19:06:00,73.4,66.1,29.86,SW,225,3.5,3.5,78,0.00,CLR,,0.00,WeatherDisplay:10.37,2013-10-03 23:06:00,
2013-10-03 19:11:00,73.4,66.1,29.86,SW,225,3.5,3.5,78,0.00,CLR,,0.00,WeatherDisplay:10.37,2013-10-03 23:11:00,
2013-10-03 19:16:00,73.2,65.9,29.86,SW,225,2.7,2.7,78,0.00,CLR,,0.00,WeatherDisplay:10.37,2013-10-03 23:16:00,
2013-10-03 19:21:00,73.0,66.1,29.86,WSW,248,2.7,2.7,79,0.00,CLR,,0.00,WeatherDisplay:10.37,2013-10-03 23:21:00,
2013-10-03 19:26:00,72.7,66.2,29.86,WSW,248,2.3,2.3,80,0.00,CLR,,0.00,WeatherDisplay:10.37,2013-10-03 23:26:00,
2013-10-03 19:31:00,72.5,66.0,29.86,WSW,248,2.3,2.3,80,0.00,CLR,,0.00,WeatherDisplay:10.37,2013-10-03 23:31:00,
2013-10-03 19:36:00,72.5,66.0,29.86,West,270,2.3,2.3,80,0.00,CLR,,0.00,WeatherDisplay:10.37,2013-10-03 23:36:00,
2013-10-03 19:41:00,72.5,66.0,29.86,WSW,248,2.7,2.7,80,0.00,CLR,,0.00,WeatherDisplay:10.37,2013-10-03 23:41:00,
2013-10-03 19:46:00,72.5,66.0,29.86,SW,225,2.3,2.3,80,0.00,CLR,,0.00,WeatherDisplay:10.37,2013-10-03 23:46:00,
2013-10-03 19:51:00,71.8,66.0,29.86,SW,225,2.3,2.3,82,0.00,CLR,,0.00,WeatherDisplay:10.37,2013-10-03 23:51:00,
2013-10-03 19:56:00,71.6,65.8,29.86,SW,225,3.5,3.5,82,0.00,CLR,,0.00,WeatherDisplay:10.37,2013-10-03 23:56:00,
2013-10-03 20:01:00,71.8,65.7,29.86,SSW,202,2.3,2.3,81,0.00,FEW,,0.00,WeatherDisplay:10.37,2013-10-04 00:01:00,
2013-10-03 20:06:00,71.8,65.7,29.86,SW,225,3.5,3.5,81,0.00,FEW,,0.00,WeatherDisplay:10.37,2013-10-04 00:06:00,
2013-10-03 20:11:00,71.6,65.5,29.87,West,270,3.5,3.5,81,0.00,FEW,,0.00,WeatherDisplay:10.37,2013-10-04 00:11:00,
2013-10-03 20:16:00,71.6,65.8,29.87,WSW,248,3.5,3.5,82,0.00,FEW,,0.00,WeatherDisplay:10.37,2013-10-04 00:16:00,
2013-10-03 20:21:00,71.6,65.8,29.87,SW,225,3.5,3.5,82,0.00,FEW,,0.00,WeatherDisplay:10.37,2013-10-04 00:21:00,
2013-10-03 20:26:00,71.8,66.0,29.87,SW,225,3.5,3.5,82,0.00,FEW,,0.00,WeatherDisplay:10.37,2013-10-04 00:26:00,
2013-10-03 20:31:00,71.8,66.0,29.87,WSW,248,3.5,3.5,82,0.00,FEW,,0.00,WeatherDisplay:10.37,2013-10-04 00:31:00,
2013-10-03 20:36:00,71.6,65.8,29.87,SW,225,4.7,4.7,82,0.00,FEW,,0.00,WeatherDisplay:10.37,2013-10-04 00:36:00,
2013-10-03 20:41:00,70.7,65.6,29.87,West,270,18.4,18.4,84,0.00,FEW,,0.00,WeatherDisplay:10.37,2013-10-04 00:41:00,
2013-10-03 20:46:00,70.7,65.6,29.87,WSW,248,11.9,11.9,84,0.00,FEW,,0.00,WeatherDisplay:10.37,2013-10-04 00:46:00,
2013-10-03 20:51:00,70.5,65.8,29.89,West,270,7.3,7.3,85,0.00,FEW,,0.00,WeatherDisplay:10.37,2013-10-04 00:51:00,
2013-10-03 20:56:00,70.2,65.8,29.89,WSW,248,6.9,6.9,86,0.00,FEW,,0.00,WeatherDisplay:10.37,2013-10-04 00:56:00,
2013-10-03 21:01:00,69.4,65.7,29.89,SW,225,7.3,7.3,88,0.01,-RA,,0.01,WeatherDisplay:10.37,2013-10-04 01:01:00,
2013-10-03 21:06:00,69.1,65.7,29.89,WSW,248,7.3,7.3,89,0.03,-RA,,0.03,WeatherDisplay:10.37,2013-10-04 01:06:00,
2013-10-03 21:11:00,68.5,65.4,29.90,SW,225,8.1,8.1,90,0.04,-RA,,0.04,WeatherDisplay:10.37,2013-10-04 01:11:00,
2013-10-03 21:16:00,68.4,65.7,29.90,WSW,248,6.9,6.9,91,0.05,-RA,,0.05,WeatherDisplay:10.37,2013-10-04 01:16:00,
2013-10-03 21:21:00,68.2,65.5,29.90,SW,225,4.6,4.6,91,0.05,-RA,,0.05,WeatherDisplay:10.37,2013-10-04 01:21:00,
2013-10-03 21:26:00,68.0,65.3,29.90,SW,225,4.6,4.6,91,0.05,-RA,,0.05,WeatherDisplay:10.37,2013-10-04 01:26:00,
2013-10-03 21:31:00,67.8,65.1,29.90,WSW,248,3.5,3.5,91,0.05,-RA,,0.05,WeatherDisplay:10.37,2013-10-04 01:31:00,
2013-10-03 21:36:00,67.6,64.9,29.89,West,270,3.5,3.5,91,0.05,-RA,,0.05,WeatherDisplay:10.37,2013-10-04 01:36:00,
2013-10-03 21:41:00,67.6,64.9,29.89,SSE,158,1.1,1.1,91,0.05,-RA,,0.05,WeatherDisplay:10.37,2013-10-04 01:41:00,
2013-10-03 21:46:00,67.6,64.9,29.89,ESE,112,0.0,0.0,91,0.05,-RA,,0.05,WeatherDisplay:10.37,2013-10-04 01:46:00,
2013-10-03 21:51:00,67.6,64.9,29.89,ESE,112,2.7,2.7,91,0.05,-RA,,0.05,WeatherDisplay:10.37,2013-10-04 01:51:00,
2013-10-03 21:56:00,67.5,65.1,29.89,ESE,112,0.0,0.0,92,0.05,-RA,,0.05,WeatherDisplay:10.37,2013-10-04 01:56:00,
2013-10-03 22:01:00,67.3,64.9,29.89,SW,225,0.0,0.0,92,0.04,BKN,,0.05,WeatherDisplay:10.37,2013-10-04 02:01:00,
2013-10-03 22:06:00,67.1,64.4,29.89,West,270,0.0,0.0,91,0.02,BKN,,0.05,WeatherDisplay:10.37,2013-10-04 02:06:00,
2013-10-03 22:11:00,66.9,64.5,29.89,North,360,0.0,0.0,92,0.01,BKN,,0.05,WeatherDisplay:10.37,2013-10-04 02:11:00,
2013-10-03 22:16:00,66.7,64.3,29.89,East,90,0.0,0.0,92,0.00,BKN,,0.05,WeatherDisplay:10.37,2013-10-04 02:16:00,
2013-10-03 22:21:00,66.7,64.3,29.89,SE,135,0.0,0.0,92,0.00,BKN,,0.05,WeatherDisplay:10.37,2013-10-04 02:21:00,
2013-10-03 22:26:00,66.7,64.3,29.89,ESE,112,0.0,0.0,92,0.00,BKN,,0.05,WeatherDisplay:10.37,2013-10-04 02:26:00,
2013-10-03 22:31:00,66.7,64.3,29.89,ESE,112,0.0,0.0,92,0.00,BKN,,0.05,WeatherDisplay:10.37,2013-10-04 02:31:00,
2013-10-03 22:36:00,66.6,64.2,29.89,ESE,112,0.0,0.0,92,0.00,BKN,,0.05,WeatherDisplay:10.37,2013-10-04 02:36:00,
2013-10-03 22:41:00,66.6,64.2,29.89,ESE,112,0.0,0.0,92,0.00,BKN,,0.05,WeatherDisplay:10.37,2013-10-04 02:41:00,
2013-10-03 22:46:00,66.6,64.2,29.89,SE,135,0.0,0.0,92,0.00,BKN,,0.05,WeatherDisplay:10.37,2013-10-04 02:46:00,
2013-10-03 22:51:00,66.6,64.2,29.89,SE,135,2.3,2.3,92,0.00,BKN,,0.05,WeatherDisplay:10.37,2013-10-04 02:51:00,
2013-10-03 22:56:00,66.6,64.2,29.89,SSW,202,1.1,1.1,92,0.00,BKN,,0.05,WeatherDisplay:10.37,2013-10-04 02:56:00,
2013-10-03 23:01:00,66.6,64.2,29.89,SW,225,0.0,0.0,92,0.00,OVC,,0.05,WeatherDisplay:10.37,2013-10-04 03:01:00,
2013-10-03 23:06:00,66.6,64.2,29.89,ESE,112,0.0,0.0,92,0.00,OVC,,0.05,WeatherDisplay:10.37,2013-10-04 03:06:00,
2013-10-03 23:11:00,66.4,64.0,29.89,ESE,112,0.0,0.0,92,0.00,OVC,,0.05,WeatherDisplay:10.37,2013-10-04 03:11:00,
2013-10-03 23:16:00,66.2,63.8,29.89,SW,225,0.0,0.0,92,0.00,OVC,,0.05,WeatherDisplay:10.37,2013-10-04 03:16:00,
2013-10-03 23:21:00,66.2,63.8,29.89,SSW,202,1.1,1.1,92,0.00,OVC,,0.05,WeatherDisplay:10.37,2013-10-04 03:21:00,
2013-10-03 23:26:00,66.2,63.8,29.89,SW,225,1.1,1.1,92,0.00,OVC,,0.05,WeatherDisplay:10.37,2013-10-04 03:26:00,
2013-10-03 23:31:00,66.0,63.6,29.89,WSW,248,2.3,2.3,92,0.00,OVC,,0.05,WeatherDisplay:10.37,2013-10-04 03:31:00,
2013-10-03 23:36:00,66.0,63.9,29.89,WSW,248,0.0,0.0,93,0.00,OVC,,0.05,WeatherDisplay:10.37,2013-10-04 03:36:00,
2013-10-03 23:41:00,65.8,63.7,29.89,WSW,248,0.0,0.0,93,0.00,OVC,,0.05,WeatherDisplay:10.37,2013-10-04 03:41:00,
2013-10-03 23:46:00,65.7,63.6,29.89,SSE,158,0.0,0.0,93,0.00,OVC,,0.05,WeatherDisplay:10.37,2013-10-04 03:46:00,
2013-10-03 23:51:00,65.7,63.6,29.89,WSW,248,0.0,0.0,93,0.00,OVC,,0.05,WeatherDisplay:10.37,2013-10-04 03:51:00,
2013-10-03 23:56:00,65.7,63.6,29.89,West,270,1.1,1.1,93,0.00,OVC,,0.05,WeatherDisplay:10.37,2013-10-04 03:56:00,